Bradshaw AFB, HI

2:29 AM HST on November 13, 2019 (GMT -1000)
Bradshaw Army Air Field

Weather History for PHSF - October, 2019

Change the Weather History Date:

Sunday, October 13, 2019

  Actual Average Record
Temperature  
Mean Temperature 58 °F -  
Max Temperature 73 °F 69 °F 77 °F (2006)
Min Temperature 44 °F 49 °F 42 °F (2011)
Degree Days  
Heating Degree Days 6    
Growing Degree Days 8 (Base 50)    
Moisture  
Dew Point 50 °F    
Average Humidity 77    
Maximum Humidity 94    
Minimum Humidity 40    
Precipitation  
Precipitation 0.00 in - - ()
Sea Level Pressure  
Sea Level Pressure 29.95 in    
Wind  
Wind Speed 9 mph (WNW)    
Max Wind Speed 23 mph    
Max Gust Speed 30 mph    
Visibility 9 miles    
Events      
Averages and records for this station are not official NWS values.
T = Trace of Precipitation, MM = Missing Value Source: NWS Daily Summary

Daily Weather History Graph

Daily Weather History Graph

Search for Another Location

Airport or City:

Astronomy

Oct. 13, 2019 Rise Set
Actual Time 6:16 AM HST 6:00 PM HST
Civil Twilight 5:54 AM HST 6:22 PM HST
Nautical Twilight 5:28 AM HST 6:48 PM HST
Astronomical Twilight 5:02 AM HST 7:13 PM HST
Moon 6:22 PM HST 6:10 AM HST
Length of Visible Light 12h 28m
Length of Day
11h 44m
Full, 100% of the Moon is Illuminated
Oct 13
Full
Oct 21
Last Quarter
Oct 27
New
Nov 4
First Quarter
Nov 12
Full

Hourly Weather History & Observations

Time (HST) Temp. Windchill Dew Point Humidity Pressure Visibility Wind Dir Wind Speed Gust Speed Precip Events Conditions
12:58 AM 55.4 °F - 52.0 °F 88% 29.88 in 10.0 mi South 23.0 mph 29.9 mph N/A   Clear
1:58 AM 55.8 °F - 51.8 °F 87% 29.86 in 10.0 mi South 18.4 mph - N/A   Clear
2:58 AM 54.1 °F - 46.8 °F 76% 29.89 in 10.0 mi North 13.8 mph - N/A   Clear
3:58 AM 52.0 °F - 45.5 °F 79% 29.90 in 10.0 mi Calm Calm - N/A   Clear
4:58 AM 48.7 °F - 43.9 °F 83% 29.95 in 10.0 mi Calm Calm - N/A   Clear
5:58 AM 44.8 °F 40.4 °F 41.9 °F 90% 29.99 in 9.0 mi SE 8.1 mph - N/A   Clear
6:58 AM 46.8 °F - 43.2 °F 87% 30.01 in 8.0 mi SSE 5.8 mph - N/A   Clear
7:58 AM 57.7 °F - 50.2 °F 76% 29.98 in 10.0 mi WNW 3.5 mph - N/A   Clear
8:58 AM 62.8 °F - 49.1 °F 61% 29.98 in 10.0 mi North 5.8 mph - N/A   Clear
9:58 AM 67.3 °F - 51.6 °F 57% 29.97 in 10.0 mi North 4.6 mph - N/A   Clear
10:58 AM 70.2 °F - 50.4 °F 49% 29.95 in 10.0 mi NNW 10.4 mph 16.1 mph N/A   Clear
11:58 AM 73.8 °F - 47.8 °F 40% 29.92 in 10.0 mi West 8.1 mph - N/A   Clear
12:58 PM 71.2 °F - 55.9 °F 58% 29.91 in 9.0 mi WNW 8.1 mph 17.3 mph N/A   Partly Cloudy
1:58 PM 70.7 °F - 57.9 °F 64% 29.90 in 10.0 mi NW 12.7 mph 18.4 mph N/A   Partly Cloudy
2:58 PM 71.4 °F - 58.1 °F 63% 29.90 in 9.0 mi NNW 5.8 mph - N/A   Clear
3:58 PM 71.1 °F - 49.3 °F 46% 29.90 in 10.0 mi South 8.1 mph - N/A   Clear
4:58 PM 67.3 °F - 47.5 °F 49% 29.94 in 10.0 mi WNW 5.8 mph - N/A   Clear
5:58 PM 60.6 °F - 58.6 °F 93% 29.99 in 8.0 mi North 6.9 mph - N/A   Clear
6:28 PM 59.0 °F - 55.4 °F 88% 29.99 in 9.0 mi NNW 6.9 mph - N/A   Mostly Cloudy
6:38 PM 59.0 °F - 51.8 °F 77% 30.00 in 10.0 mi NW 4.6 mph - N/A   Scattered Clouds
6:58 PM 56.8 °F - 52.2 °F 84% 29.99 in 10.0 mi Calm Calm - N/A   Partly Cloudy
7:58 PM 52.7 °F - 50.5 °F 92% 29.99 in 9.0 mi Calm Calm - N/A   Clear
8:28 PM 51.8 °F - 50.0 °F 94% 29.99 in 9.0 mi Calm Calm - N/A   Mostly Cloudy
8:53 PM 53.6 °F - 50.0 °F 88% 29.98 in 8.0 mi South 4.6 mph - N/A   Overcast
8:58 PM 53.4 °F - 49.6 °F 87% 29.98 in 9.0 mi SSW 3.5 mph - N/A   Overcast
9:13 PM 53.6 °F - 50.0 °F 88% 29.98 in 10.0 mi South 3.5 mph - N/A   Overcast
9:58 PM 52.7 °F - 50.7 °F 93% 29.99 in 9.0 mi ESE 3.5 mph - N/A   Mostly Cloudy
10:03 PM 51.8 °F - 50.0 °F 94% 29.98 in 9.0 mi East 3.5 mph - N/A   Scattered Clouds
10:58 PM 49.3 °F - 46.6 °F 90% 29.96 in 9.0 mi East 3.5 mph - N/A   Clear
11:58 PM 46.9 °F - 44.1 °F 90% 29.96 in 9.0 mi Calm Calm - N/A   Clear